Location: Berlise
(49.6641°N, 4.1077°E)
Time: 19:43:23
(UTC+00:00)

SL-16 R/B - Pass Details

Date: 27 January 2021
Orbit: 839 x 850 km, 71.0° (Epoch: 27 February)

Event Time Altitude Azimuth Distance (km) Brightness Sun altitude
Rises 05:10:48 0° 200° (SSW) 3,383 5.2 -21.2°
Reaches altitude 10° 05:13:14 10° 199° (SSW) 2,453 4.5 -20.8°
Maximum altitude 05:18:51 75° 115° (ESE) 878 2.4 -19.9°
Drops below altitude 10° 05:24:31 10° 32° (NNE) 2,477 4.9 -19.0°
Sets 05:26:59 0° 30° (NNE) 3,417 5.7 -18.6°
